Location: Stoke Bliss
(52.2667°N, 2.5167°W)
Time: 08:04:31
(UTC+00:00)

Gbstr 26 Del rocket - Visible Passes

Search period start: 16 June 2021 00:00
Search period end: 26 June 2021 00:00
Orbit: 493 x 1263 km, 51.8° (Epoch: 15 June)

Date Brightness Start Highest point End Pass type
(mag) Time Alt. Az. Time Alt. Az. Time Alt. Az.
23 Jun 5.8 02:41:52 10° SE 02:42:48 10° ESE 02:43:46 10° ESE visible
24 Jun 5.5 02:35:27 10° SSE 02:37:39 13° SE 02:40:00 10° E visible
25 Jun 5.3 02:29:42 10° SSE 02:32:30 16° SE 02:35:37 10° E visible
